Theta_e
289 288 287 286 286 286 286 287 287 287 287 287 286 286 286 283 283 283 283 282 281 281 281 280 280 279 279 278 278 278 278 278
291 290 289 287 286 287 286 285 285 285 286 286 286 285 285 283 283 283 282 281 281 281 280 280 279 279 278 277 277 277 276 277
291 291 290 289 287 287 287 286 287 286 286 286 285 284 284 283 283 283 282 281 281 281 280 280 279 278 278 276 277 276 275 275
291 292 292 292 289 287 286 287 287 285 285 284 284 283 284 283 282 282 282 280 280 280 279 279 278 277 277 276 276 275 275 275
290 290 291 292 292 290 289 287 285 284 284 284 284 283 284 284 282 281 281 280 279 279 279 278 277 277 276 276 275 274 274 274
289 289 290 290 292 292 292 287 285 284 284 284 285 284 284 283 281 281 280 280 279 278 278 277 277 276 275 275 274 273 272 272
287 288 288 289 289 289 290 290 284 285 285 285 284 283 283 283 281 280 279 279 278 277 277 276 276 281 280 276 273 273 272 271
287 288 288 289 288 288 287 287 288 285 287 284 281 281 281 280 279 279 278 278 277 277 276 275 276 281 282 279 274 273 272 272
287 286 287 288 288 287 286 285 284 285 285 281 281 282 280 279 278 278 278 277 277 277 276 276 275 282 283 280 274 273 273 273
285 287 287 286 287 285 284 284 282 281 281 280 279 280 278 278 277 278 277 277 277 277 275 275 275 282 283 280 273 273 273 273
283 284 285 285 286 285 284 284 282 279 279 277 276 276 277 278 277 277 278 276 276 275 275 275 274 282 283 279 274 272 272 273
280 280 282 283 284 283 284 283 282 277 274 272 273 273 274 276 276 275 275 275 274 273 273 273 274 279 283 282 274 272 272 271
278 278 279 279 280 280 281 284 282 276 273 272 270 272 272 272 270 273 274 273 272 271 270 271 273 278 283 283 278 277 271 271
275 273 275 275 276 275 276 279 283 283 279 275 274 272 274 273 272 272 272 271 270 270 270 269 271 275 282 283 280 278 272 272
272 271 271 272 273 273 275 277 276 278 280 276 273 272 272 272 271 272 270 271 270 269 270 269 269 271 277 279 280 277 274 275
270 269 268 269 270 270 271 272 271 274 277 276 273 272 271 272 271 272 273 273 271 271 271 269 268 270 275 277 277 275 274 267
267 266 266 266 266 267 268 268 268 269 272 275 273 272 271 271 270 276 276 276 278 277 274 272 275 276 277 279 280 277 275 265
264 264 264 263 263 264 265 266 266 267 269 273 273 272 270 270 270 268 273 277 278 279 278 276 276 277 278 279 279 278 274 264
262 261 261 261 260 262 263 264 265 266 268 270 275 272 271 270 269 269 270 271 271 278 277 278 277 278 279 279 278 274 266 263
259 259 259 259 260 262 263 264 265 266 267 270 274 273 271 270 269 269 269 270 271 273 277 276 278 279 279 279 271 264 261 260
Wind_Speed
8 5 3 6 7 8 7 10 9 11 12 11 13 13 12 11 13 13 11 12 14 15 14 13 11 11 11 7 7 8 6 5
8 4 5 3 6 8 10 12 12 13 13 13 14 14 14 13 13 14 13 15 15 15 15 15 14 12 11 9 10 10 8 5
9 6 5 9 9 13 11 12 15 13 14 17 12 12 14 15 16 15 15 15 16 16 16 16 15 15 14 12 11 12 12 11
9 11 9 8 8 9 9 15 12 10 13 10 12 13 17 17 14 15 15 16 15 16 18 18 17 16 14 14 13 12 12 12
16 15 15 17 16 14 12 10 7 10 13 16 17 20 18 15 15 17 17 17 17 17 18 18 17 16 14 13 12 10 9 8
16 16 18 19 21 21 18 10 7 11 13 18 17 15 14 16 16 16 16 16 17 17 15 15 16 14 17 15 12 12 10 9
17 16 16 16 16 17 20 21 8 12 17 15 10 11 16 15 16 16 15 16 16 16 17 17 13 26 28 19 13 12 12 11
16 16 17 18 17 17 18 18 19 16 15 12 10 13 14 13 14 15 16 14 16 16 17 18 17 30 31 28 14 14 12 12
15 17 16 17 17 16 17 15 16 16 13 6 9 13 12 12 15 15 15 17 16 16 17 15 14 31 32 29 13 13 13 13
15 16 16 17 16 16 16 15 11 12 9 7 6 8 9 12 14 12 13 13 14 14 17 17 13 29 30 25 13 12 12 11
15 16 17 16 15 16 15 15 13 13 8 6 4 5 9 10 10 8 9 11 10 12 14 17 17 33 34 24 11 13 10 10
15 15 15 18 19 19 16 16 11 10 10 4 3 3 4 5 5 7 10 9 10 11 10 13 17 22 33 32 13 12 12 10
13 14 15 16 14 18 19 16 11 7 5 7 3 3 3 2 3 5 7 10 10 11 8 8 10 19 32 33 22 21 12 12
12 17 15 12 13 19 19 20 19 14 12 7 5 6 8 8 7 5 6 7 8 9 9 8 7 9 27 30 26 23 10 8
14 17 20 15 16 16 18 18 19 19 15 8 8 7 7 7 8 9 9 9 8 9 10 9 9 10 10 11 14 18 13 17
14 17 22 18 19 15 16 17 18 19 17 10 9 8 8 9 9 10 12 14 13 12 11 13 14 16 21 18 12 12 12 11
15 16 19 18 21 19 16 15 17 18 14 11 9 7 8 8 7 19 18 20 23 21 17 11 16 31 35 33 29 27 29 7
18 18 20 19 21 17 17 17 18 18 16 13 11 9 9 9 9 9 12 20 22 23 23 22 18 30 32 33 33 32 25 6
18 22 20 21 22 16 16 18 18 18 22 15 13 10 9 9 8 7 9 10 9 20 17 22 24 30 32 31 27 15 8 5
21 22 20 21 22 16 16 18 20 17 15 14 14 9 11 8 8 8 9 9 8 8 16 17 25 30 33 35 12 11 8 6
Wind_Direction
330 306 211 181 182 189 193 206 195 202 204 197 192 193 190 172 185 184 178 167 172 178 180 177 177 173 174 175 165 166 175 175
311 312 265 230 206 202 202 203 198 197 200 199 204 197 188 185 189 187 174 175 176 180 179 178 179 177 179 179 171 172 167 167
287 317 247 215 212 219 216 214 218 209 202 208 201 191 198 197 190 181 183 181 179 179 180 181 183 179 182 178 180 179 175 175
329 314 296 279 253 231 219 228 228 204 200 199 202 197 209 204 190 183 181 183 180 179 184 183 183 179 183 183 180 184 180 176
4 352 359 353 341 329 286 252 227 202 201 208 202 204 208 204 189 186 185 182 185 186 186 183 179 180 177 177 176 181 180 172
344 348 350 349 346 342 334 293 232 223 226 224 217 212 202 202 190 186 187 192 185 178 183 181 182 178 177 174 171 174 169 167
339 347 345 338 336 332 332 331 252 243 237 237 232 213 201 198 192 183 185 187 181 186 179 183 189 185 180 168 167 171 173 174
344 342 332 329 329 329 328 324 320 269 257 229 200 197 209 186 186 184 192 183 188 185 183 188 187 183 182 177 168 170 174 171
335 324 325 325 322 324 326 322 330 310 277 247 210 213 197 185 189 184 183 188 188 189 187 188 187 183 183 176 170 170 169 172
319 316 311 316 319 319 325 322 327 329 315 292 240 223 200 201 199 187 183 189 190 188 177 179 178 186 184 173 165 168 166 168
313 316 314 312 315 313 315 323 327 317 294 263 241 214 211 206 196 187 195 193 182 182 183 182 171 185 186 171 160 165 163 167
323 315 311 320 321 313 314 317 319 320 300 264 229 231 192 181 183 177 177 174 179 172 173 178 173 187 188 178 169 169 167 168
304 299 314 309 311 308 307 315 316 309 285 274 183 123 109 152 121 167 183 175 168 165 160 175 184 193 189 185 180 179 166 168
307 308 304 306 310 305 309 315 310 300 288 251 238 166 163 160 160 161 184 190 174 174 175 173 183 197 195 191 179 184 162 157
309 304 303 309 304 301 307 312 316 305 289 257 225 199 184 177 170 178 187 192 188 189 186 173 174 177 195 191 180 186 164 166
297 300 295 306 299 300 305 309 303 297 289 263 239 210 198 203 199 205 212 196 189 199 187 175 184 187 177 172 175 168 157 123
288 287 288 293 295 303 302 297 292 286 287 263 235 218 211 204 210 225 226 223 218 209 198 201 210 180 179 178 178 162 153 146
290 291 291 289 286 294 293 289 282 280 282 282 243 223 214 205 206 202 221 219 223 216 211 202 195 187 186 178 173 169 158 164
292 289 289 287 282 286 280 277 276 276 277 271 267 225 214 213 195 203 198 201 194 219 207 201 195 184 180 176 170 170 147 134
284 284 286 283 285 284 281 280 283 283 278 276 278 226 214 205 183 188 195 194 187 174 192 182 191 181 176 173 159 151 151 150